Location: Newark
(36.0797°N, 3.9744°E)
Time: 11:59:38
(UTC+00:00)

Vanguard 2 - Pass Details

Date: 08 December 2019
Orbit: 553 x 2938 km, 32.9° (Epoch: 18 January)

Event Time Altitude Azimuth Distance (km) Brightness Sun altitude
Exits shadow 03:19:32 63° 232° (SW) 3,163 10.2 -40.1°
Maximum altitude 03:23:19 77° 171° (S) 2,959 10.2 -39.4°
Drops below altitude 10° 03:39:17 10° 89° (E) 5,053 12.4 -36.1°
Sets 03:42:41 0° 88° (E) 5,816 13.0 -35.5°
